When you browse on this site, cookies collect data to enhance your experience and personalize the content and advertising you see.
Visit our Privacy Policy to learn more. By continuing to use the site, you agree to this use of cookies and data.
  • In Hungary
  • List of Countries
  • For 7 days
  • Water Temperature
  • Weather Map
  • News
  • Weather Widgets
  • user-avatar
    Login

    Hourly Weather Malanville

    Today, 13 November, Wednesday

    Time Temperature Precipitation Wind Pressure Humidity
    00:00 +30°C° 0 mm 2 mps 741 mmHg 23%
    01:00 +29°C° 0 mm 2 mps 741 mmHg 20%
    02:00 +29°C° 0 mm 2 mps 741 mmHg 18%
    03:00 +28°C° 0 mm 2 mps 741 mmHg 15%
    04:00 +28°C° 0 mm 2 mps 741 mmHg 16%
    05:00 +27°C° 0 mm 2 mps 742 mmHg 17%
    06:00 +27°C° 0 mm 2 mps 742 mmHg 18%
    07:00 +29°C° 0 mm 3 mps 742 mmHg 17%
    08:00 +31°C° 0 mm 3 mps 743 mmHg 15%
    09:00 +34°C° 0 mm 4 mps 743 mmHg 14%
    10:00 +35°C° 0 mm 3 mps 743 mmHg 14%
    11:00 +37°C° 0 mm 3 mps 742 mmHg 13%
    12:00 +38°C° 0 mm 3 mps 742 mmHg 14%
    13:00 +39°C° 0 mm 3 mps 741 mmHg 15%
    14:00 +39°C° 0 mm 3 mps 741 mmHg 16%
    15:00 +39°C° 0 mm 2 mps 740 mmHg 17%
    16:00 +37°C° 0 mm 2 mps 740 mmHg 18%
    17:00 +35°C° 0 mm 2 mps 741 mmHg 20%
    18:00 +32°C° 0 mm 2 mps 741 mmHg 22%
    19:00 +32°C° 0 mm 2 mps 742 mmHg 21%
    20:00 +31°C° 0 mm 3 mps 742 mmHg 21%
    21:00 +30°C° 0 mm 3 mps 743 mmHg 21%
    22:00 +30°C° 0 mm 3 mps 742 mmHg 20%
    23:00 +29°C° 0 mm 3 mps 742 mmHg 20%

    Tomorrow, 14 November, Thursday

    Time Temperature Precipitation Wind Pressure Humidity
    00:00 +28°C° 0 mm 3 mps 742 mmHg 19%
    01:00 +28°C° 0 mm 3 mps 742 mmHg 19%
    02:00 +27°C° 0 mm 3 mps 741 mmHg 19%
    03:00 +27°C° 0 mm 3 mps 741 mmHg 19%
    04:00 +26°C° 0 mm 2 mps 742 mmHg 21%
    05:00 +26°C° 0 mm 2 mps 742 mmHg 23%
    06:00 +25°C° 0 mm 1 mps 742 mmHg 25%
    07:00 +28°C° 0 mm 2 mps 743 mmHg 22%
    08:00 +31°C° 0 mm 3 mps 743 mmHg 18%
    09:00 +34°C° 0 mm 4 mps 744 mmHg 15%
    10:00 +36°C° 0 mm 4 mps 743 mmHg 14%
    11:00 +38°C° 0 mm 4 mps 742 mmHg 14%
    12:00 +40°C° 0 mm 4 mps 742 mmHg 13%
    13:00 +39°C° 0 mm 3 mps 741 mmHg 13%
    14:00 +39°C° 0 mm 3 mps 740 mmHg 14%
    15:00 +40°C° 0 mm 2 mps 740 mmHg 14%
    16:00 +38°C° 0 mm 2 mps 740 mmHg 16%
    17:00 +36°C° 0 mm 2 mps 740 mmHg 18%
    18:00 +34°C° 0 mm 2 mps 740 mmHg 20%
    19:00 +32°C° 0 mm 2 mps 741 mmHg 20%
    20:00 +31°C° 0 mm 2 mps 742 mmHg 20%
    21:00 +30°C° 0 mm 2 mps 742 mmHg 19%
    22:00 +30°C° 0 mm 3 mps 742 mmHg 19%
    23:00 +29°C° 0 mm 3 mps 742 mmHg 19%

    Day after tomorrow, 15 November, Friday

    Time Temperature Precipitation Wind Pressure Humidity
    00:00 +29°C° 0 mm 3 mps 741 mmHg 19%
    01:00 +28°C° 0 mm 2 mps 741 mmHg 19%
    02:00 +27°C° 0 mm 2 mps 741 mmHg 19%
    03:00 +27°C° 0 mm 2 mps 741 mmHg 19%
    04:00 +26°C° 0 mm 2 mps 741 mmHg 20%
    05:00 +26°C° 0 mm 2 mps 741 mmHg 20%
    06:00 +26°C° 0 mm 2 mps 741 mmHg 21%
    07:00 +28°C° 0 mm 2 mps 742 mmHg 19%
    08:00 +31°C° 0 mm 3 mps 742 mmHg 16%
    09:00 +35°C° 0 mm 3 mps 743 mmHg 14%
    10:00 +37°C° 0 mm 3 mps 742 mmHg 14%
    11:00 +38°C° 0 mm 3 mps 741 mmHg 13%
    12:00 +40°C° 0 mm 3 mps 741 mmHg 13%
    13:00 +40°C° 0 mm 3 mps 740 mmHg 13%
    14:00 +40°C° 0 mm 2 mps 740 mmHg 13%
    15:00 +40°C° 0 mm 2 mps 739 mmHg 14%
    16:00 +38°C° 0 mm 2 mps 739 mmHg 17%
    17:00 +34°C° 0 mm 1 mps 739 mmHg 20%
    18:00 +32°C° 0 mm 1 mps 739 mmHg 23%
    19:00 +31°C° 0 mm 1 mps 740 mmHg 23%
    20:00 +31°C° 0 mm 1 mps 741 mmHg 23%
    21:00 +31°C° 0 mm 1 mps 741 mmHg 24%
    22:00 +30°C° 0 mm 1 mps 741 mmHg 23%
    23:00 +30°C° 0 mm 1 mps 741 mmHg 23%

    16 November, Saturday

    Time Temperature Precipitation Wind Pressure Humidity
    00:00 +29°C° 0 mm 2 mps 741 mmHg 23%
    01:00 +29°C° 0 mm 2 mps 741 mmHg 23%
    02:00 +28°C° 0 mm 2 mps 740 mmHg 24%
    03:00 +28°C° 0 mm 2 mps 740 mmHg 24%
    04:00 +27°C° 0 mm 2 mps 741 mmHg 25%
    05:00 +27°C° 0 mm 2 mps 741 mmHg 25%
    06:00 +27°C° 0 mm 2 mps 741 mmHg 26%
    07:00 +30°C° 0 mm 3 mps 742 mmHg 23%
    08:00 +33°C° 0 mm 3 mps 742 mmHg 20%
    09:00 +36°C° 0 mm 4 mps 743 mmHg 17%
    10:00 +38°C° 0 mm 4 mps 742 mmHg 15%
    11:00 +40°C° 0 mm 4 mps 741 mmHg 14%
    12:00 +42°C° 0 mm 4 mps 741 mmHg 12%
    13:00 +42°C° 0 mm 4 mps 740 mmHg 12%
    14:00 +42°C° 0 mm 4 mps 739 mmHg 13%
    15:00 +42°C° 0 mm 3 mps 739 mmHg 13%
    16:00 +38°C° 0 mm 3 mps 739 mmHg 15%
    17:00 +36°C° 0 mm 2 mps 739 mmHg 17%
    18:00 +33°C° 0 mm 1 mps 739 mmHg 20%
    19:00 +32°C° 0 mm 1 mps 740 mmHg 21%
    20:00 +31°C° 0 mm 1 mps 740 mmHg 22%
    21:00 +30°C° 0 mm 1 mps 741 mmHg 22%
    22:00 +29°C° 0 mm 1 mps 741 mmHg 24%
    23:00 +29°C° 0 mm 1 mps 741 mmHg 25%

    17 November, Sunday

    Time Temperature Precipitation Wind Pressure Humidity
    00:00 +26°C° 0 mm 0 mps 741 mmHg 26%
    01:00 +28°C° 0 mm 1 mps 740 mmHg 25%
    02:00 +28°C° 0 mm 1 mps 740 mmHg 24%
    03:00 +28°C° 0 mm 2 mps 740 mmHg 22%
    04:00 +27°C° 0 mm 1 mps 741 mmHg 24%
    05:00 +27°C° 0 mm 1 mps 741 mmHg 25%
    06:00 +26°C° 0 mm 1 mps 741 mmHg 26%
    07:00 +29°C° 0 mm 1 mps 742 mmHg 23%
    08:00 +32°C° 0 mm 2 mps 742 mmHg 20%
    09:00 +36°C° 0 mm 2 mps 743 mmHg 17%
    10:00 +37°C° 0 mm 2 mps 742 mmHg 15%
    11:00 +39°C° 0 mm 3 mps 741 mmHg 14%
    12:00 +40°C° 0 mm 3 mps 740 mmHg 13%
    13:00 +42°C° 0 mm 3 mps 740 mmHg 12%
    14:00 +42°C° 0 mm 3 mps 740 mmHg 12%
    15:00 +42°C° 0 mm 3 mps 739 mmHg 12%
    16:00 +39°C° 0 mm 2 mps 739 mmHg 14%
    17:00 +36°C° 0 mm 2 mps 739 mmHg 17%
    18:00 +34°C° 0 mm 2 mps 740 mmHg 19%
    19:00 +32°C° 0 mm 1 mps 740 mmHg 20%
    20:00 +31°C° 0 mm 1 mps 740 mmHg 22%
    21:00 +30°C° 0 mm 1 mps 741 mmHg 23%
    22:00 +29°C° 0 mm 1 mps 741 mmHg 23%
    23:00 +29°C° 0 mm 1 mps 741 mmHg 23%

    18 November, Monday

    Time Temperature Precipitation Wind Pressure Humidity
    00:00 +29°C° 0 mm 1 mps 741 mmHg 22%
    01:00 +28°C° 0 mm 2 mps 741 mmHg 23%
    02:00 +28°C° 0 mm 2 mps 740 mmHg 23%
    03:00 +28°C° 0 mm 2 mps 740 mmHg 23%
    04:00 +27°C° 0 mm 2 mps 741 mmHg 24%
    05:00 +26°C° 0 mm 1 mps 741 mmHg 26%
    06:00 +26°C° 0 mm 1 mps 741 mmHg 27%
    07:00 +28°C° 0 mm 1 mps 742 mmHg 24%
    08:00 +31°C° 0 mm 1 mps 742 mmHg 20%
    09:00 +34°C° 0 mm 1 mps 743 mmHg 17%
    10:00 +36°C° 0 mm 1 mps 742 mmHg 15%
    11:00 +39°C° 0 mm 2 mps 741 mmHg 14%
    12:00 +40°C° 0 mm 2 mps 741 mmHg 12%
    13:00 +41°C° 0 mm 2 mps 740 mmHg 12%
    14:00 +41°C° 0 mm 2 mps 739 mmHg 11%
    15:00 +41°C° 0 mm 2 mps 739 mmHg 11%
    16:00 +39°C° 0 mm 2 mps 739 mmHg 14%
    17:00 +35°C° 0 mm 1 mps 739 mmHg 17%
    18:00 +32°C° 0 mm 1 mps 739 mmHg 19%
    19:00 +31°C° 0 mm 1 mps 740 mmHg 21%
    20:00 +30°C° 0 mm 1 mps 740 mmHg 22%
    21:00 +29°C° 0 mm 1 mps 741 mmHg 24%
    22:00 +29°C° 0 mm 1 mps 741 mmHg 23%
    23:00 +28°C° 0 mm 1 mps 741 mmHg 23%
    Show more